This is the latest recevied weather packets stored in our database for station/object N0OQA. If no packets are shown the sender has not sent any weather packets the latest 10 day(s).
| Time | Temp. | Humidity | Pressure | Rain* | Wind** | Luminosity | Snow |
|---|---|---|---|---|---|---|---|
| 1777807966 | 8.89° C | 67% | 1006.8 hPa | 0 mm | - | - | - |
| 1777807666 | 8.89° C | 68% | 1006.6 hPa | 0 mm | - | - | - |
| 1777807065 | 9.44° C | 67% | 1006.6 hPa | 0 mm | - | - | - |
| 1777806164 | 10.56° C | 63% | 1006.6 hPa | 0 mm | - | - | - |
| 1777805563 | 10.56° C | 58% | 1006.4 hPa | 0 mm | - | - | - |
| 1777805263 | 11.11° C | 58% | 1006.6 hPa | 0 mm | - | - | - |
| 1777804963 | 11.11° C | 57% | 1006.5 hPa | 0 mm | - | - | - |
| 1777804662 | 11.11° C | 57% | 1006.6 hPa | 0 mm | - | - | - |
| 1777804362 | 11.67° C | 56% | 1006.4 hPa | 0 mm | - | - | - |
| 1777804062 | 11.67° C | 56% | 1006.6 hPa | 0 mm | - | - | - |
| 1777803762 | 11.67° C | 56% | 1006.6 hPa | 0 mm | - | - | - |
| 1777802861 | 11.67° C | 56% | 1006.5 hPa | 0 mm | - | - | - |
| 1777802560 | 11.67° C | 56% | 1006.5 hPa | 0 mm | - | - | - |
| 1777802260 | 11.67° C | 56% | 1006.5 hPa | 0 mm | - | - | - |
| 1777801359 | 12.22° C | 55% | 1006.5 hPa | 0 mm | - | - | - |
| 1777800459 | 12.22° C | 55% | 1006.5 hPa | 0 mm | - | - | - |
| 1777799558 | 12.78° C | 54% | 1006.6 hPa | 0 mm | - | - | - |
| 1777799257 | 12.78° C | 54% | 1006.6 hPa | 0 mm | - | - | - |
| 1777798957 | 12.78° C | 54% | 1006.6 hPa | 0 mm | - | - | - |
| 1777797456 | 13.33° C | 54% | 1006.8 hPa | 0 mm | - | - | - |
| 1777797155 | 13.33° C | 54% | 1006.7 hPa | 0 mm | - | - | - |
| 1777796855 | 13.33° C | 54% | 1006.8 hPa | 0 mm | - | - | - |
| 1777796555 | 13.33° C | 54% | 1006.8 hPa | 0 mm | - | - | - |
| 1777796254 | 13.33° C | 54% | 1006.9 hPa | 0 mm | - | - | - |
| 1777795654 | 13.33° C | 55% | 1007 hPa | 0 mm | - | - | - |
* Rain since midnight (hover to see other rain measurements)
** Current wind speed in m/s (hover to see current wind gust speed)